Last 6 Hours

Alpine-Roundhouse Btm 6950'

15 Minute Data | America/Los_Angeles
as of 8/12/20 1:18 PM PDT
Date & Time Temp (°F) RH (%) Dew Pt (°F) Wet Bulb (°F) Wind Dir (°) Wind Spd (mph) Wind Gust (mph) WindChill (°F) Barometric Pressure (inHg) SnowDepth (in) Latest Rain (In) Daily Rain (In) Daily Min Temp (°F) Daily Max Temp (°F)
8/12/20 - 1315 71.8 20 29.0 49.3 SE | 127 6.0 16.0 71.8 30.20 2.3 0.00 0.00 55.3 72.4
8/12/20 - 1300 71.8 20 28.8 49.2 SE | 128 5.7 17.4 71.8 30.20 2.2 0.00 0.00 55.3 72.4
8/12/20 - 1245 71.6 23 31.6 50.0 SE | 136 5.9 14.2 71.6 30.21 2.2 0.00 0.00 55.3 72.4
8/12/20 - 1230 70.4 21 28.1 48.4 SSE | 162 5.4 21.7 70.4 30.21 2.3 0.00 0.00 55.3 72.4
8/12/20 - 1215 71.6 22 30.7 49.8 S | 180 3.8 10.0 71.6 30.21 1.8 0.00 0.00 55.3 72.2
8/12/20 - 1200 70.5 23 30.5 49.2 SE | 145 6.2 17.9 70.5 30.22 1.8 0.00 0.00 55.3 72.0
8/12/20 - 1145 71.6 23 31.8 50.1 SSE | 155 4.8 13.8 71.6 30.22 2.0 0.00 0.00 55.3 71.9
8/12/20 - 1130 70.9 22 30.6 49.4 SE | 142 4.9 15.5 70.9 30.22 2.2 0.00 0.00 55.3 71.2
8/12/20 - 1115 69.8 22 29.1 48.5 SE | 146 6.6 12.6 69.8 30.22 2.5 0.00 0.00 55.3 70.3
8/12/20 - 1100 68.6 24 30.4 48.5 SE | 139 4.7 11.4 68.6 30.21 2.2 0.00 0.00 55.3 70.3
8/12/20 - 1045 68.4 25 31.2 48.6 SE | 125 3.6 12.0 68.4 30.21 2.5 0.00 0.00 55.3 69.0
8/12/20 - 1030 67.9 25 30.4 48.1 SE | 134 4.8 10.8 67.9 30.21 2.2 0.00 0.00 55.3 69.0
8/12/20 - 1015 68.4 22 28.6 47.8 ESE | 123 4.1 14.1 68.4 30.21 2.4 0.00 0.00 55.3 68.4
8/12/20 - 1000 67.4 23 28.1 47.2 S | 177 3.4 11.9 67.4 30.21 2.4 0.00 0.00 55.3 68.1
8/12/20 - 0945 67.9 22 27.9 47.4 SE | 145 4.1 10.1 67.9 30.21 2.9 0.00 0.00 55.3 67.9
8/12/20 - 0930 66.4 24 29.0 47.1 ESE | 122 2.2 9.1 66.4 30.21 2.3 0.00 0.00 55.3 67.4
8/12/20 - 0915 66.7 24 28.6 47.1 W | 276 2.5 8.2 66.7 30.20 2.9 0.00 0.00 55.3 67.4
8/12/20 - 0900 66.4 24 28.3 46.9 SE | 134 1.6 9.3 66.4 30.21 2.5 0.00 0.00 55.3 66.6
8/12/20 - 0845 64.9 24 27.7 46.1 SE | 136 2.8 7.4 64.9 30.19 2.2 0.00 0.00 55.3 65.9
8/12/20 - 0830 65.8 25 29.0 46.9 SSE | 155 1.8 7.4 65.8 30.20 2.1 0.00 0.00 55.3 65.8
8/12/20 - 0815 64.0 25 27.9 45.8 SE | 142 2.2 8.1 64.0 30.20 1.0 0.00 0.00 55.3 64.0
8/12/20 - 0800 62.0 26 27.0 44.6 SSE | 148 3.4 7.6 62.0 30.19 1.3 0.00 0.00 55.3 62.0
8/12/20 - 0745 60.6 27 26.7 43.9 S | 170 2.9 5.9 60.6 30.19 1.9 0.00 0.00 55.3 60.8
8/12/20 - 0730 60.6 27 26.5 43.9 S | 171 3.0 7.3 60.6 30.18 2.2 0.00 0.00 55.3 60.6
Max 71.8 27 31.8 50.1 - 6.6 21.7 71.8 30.22 2.9 0.00 0.00 55.3 72.4
Avg 67.7 23 29.1 47.7 - 4.0 11.6 67.7 30.21 2.2 0.00 - - -
Min 60.6 20 26.5 43.9 - 1.6 5.9 60.6 30.18 1.0 0.00 0.00 55.3 60.6
Total - - - - - - - - - - 0.00 - - -